Orbital Elements at Epoch 2459200.5 (2020-Dec-17.0) TDB
Reference: JPL 17 (heliocentric ecliptic J2000)
Element | Value | Uncertainty (1-sigma) | Units |
e | .05061644018337882 | 4.7727e-08 | |
a | 2.304910643088557 | 1.3023e-08 | au |
q | 2.188244271394631 | 1.0801e-07 | au |
i | 7.372071256878828 | 3.808e-06 | deg |
node | 85.73418429683666 | 3.7951e-05 | deg |
peri | 76.09853435932534 | 5.7151e-05 | deg |
M | 204.4483695318255 | 4.4502e-05 | deg |
tp | 2459752.770230528548 (2022-Jun-22.27023053) | 0.00016054 | TDB |
period | 1278.143355951225 3.50 | 1.0832e-05 2.966e-08 | d yr |
n | .2816585466127774 | 2.3871e-09 | deg/d |
Q | 2.421577014782482 | 1.3682e-08 | au |
|
| | Orbit Determination Parameters
Additional Information
|